Regional Weather Roundup
Issued by NWS

Home | Current Version | Previous Version | Graphics & Text | Print | Product List | Glossary On
Versions: 1 2 3 4 5 6 7 8 9 10 11 12 13 14 15 16 17 18 19 20 21 22 23 24 25 26 27 28
000
ASUS45 KBOU 150910
RWRCO

WEATHER ROUNDUP FOR COLORADO
NATIONAL WEATHER SERVICE DENVER/BOULDER CO
200 AM MST FRI DEC 15 2017

NOTE: "FAIR" INDICATES FEW OR NO CLOUDS BELOW 12000 FEET WITH NO
SIGNIFICANT WEATHER AND/OR OBSTRUCTIONS TO VISIBILITY.

COZ001>005-013-030-031-151000-
...NORTHWEST COLORADO...

CITY           SKY/WX    TMP DP  RH WIND       PRES   REMARKS
CRAIG          FAIR       4  -1  80 CALM      30.36S
HAYDEN         FAIR      15  10  80 E13       30.36R WCI   1
MEEKER         FAIR      12   7  80 CALM      30.36R
RABBIT EARS PA FAIR      12  10  92 W12G17    30.26R WCI  -2
STEAMBOAT SPGS FAIR      10   7  91 CALM      30.36R
WALDEN         FAIR       1  -4  78 SE8       30.29S WCI -12
$$

COZ006>008-011-151000-
...WEST CENTRAL VALLEYS...

CITY           SKY/WX    TMP DP  RH WIND       PRES   REMARKS
GRAND JUNCTION FAIR      23  13  65 E8        30.37S WCI  14
MONTROSE       FAIR      19  12  74 S9        30.40R WCI   8
EAGLE          FAIR       8   4  83 E7        30.43R WCI  -3
RIFLE          FAIR      18   8  65 E3        30.40R
DELTA          FAIR      21   5  51 E6        30.40R WCI  13
NUCLA          FAIR      21  10  63 SE6       30.38  WCI  14
$$

COZ017>023-064>068-151000-
...SOUTHWEST COLORADO...

CITY           SKY/WX    TMP DP  RH WIND       PRES   REMARKS
DURANGO        FAIR      18  13  80 N3        30.29S
CORTEZ         FAIR      18   3  52 E12       30.31S WCI   5
PAGOSA SPRINGS FAIR      17  15  95 CALM      30.28S
TELLURIDE      FAIR      19   1  46 SE8       30.33F WCI   9
WOLF CREEK PAS FAIR      19 -17  19 NW9       30.33R WCI   9
$$

COZ009-010-012-014-032>034-037-058>063-151000-
...CENTRAL COLORADO...

CITY           SKY/WX    TMP DP  RH WIND       PRES   REMARKS
ASPEN          FAIR       8   1  73 SW3       30.33R
BUENA VISTA    FAIR      17   1  48 W8        30.27R WCI   7
COPPER MTN     NOT AVBL
BERTHOUD PASS  FAIR       3  -8  60 NW14G23   30.22R WCI -15
COTTONWOOD PAS FAIR      28  -8  20 N9        30.23S WCI  20
GUNNISON       FAIR       5   2  87 E5        30.36S WCI  -4
KREMMLING      FAIR       3   0  85 CALM      30.40R
LEADVILLE      FAIR      -1  -7  75 NE3       30.28S
MONARCH PASS   FAIR      10  -6  48 SW20      30.36S WCI  -8
SALIDA         FAIR      18   6  58 W7        30.35S WCI   9
SUNLIGHT       FAIR      16   0  48 W8        30.35R WCI   5
WILKERSON PASS FAIR      19 -13  23 NW10G22   30.21S WCI   8
$$

COZ069>075-151000-
...SAN LUIS VALLEY/SANGRE DE CRISTO MOUNTAINS...

CITY           SKY/WX    TMP DP  RH WIND       PRES   REMARKS
ALAMOSA        FAIR      -3  -7  82 SW3       30.29S
DEL NORTE      FAIR      20   3  48 W10       30.28S WCI   9
LA VETA PASS   FAIR      14   9  79 SW24        N/A  WCI  -5
SAGUACHE       FAIR      27   7  43 N13G22    30.29S WCI  16
$$

COZ035-036-038>040-151000-
...NORTHERN COLORADO FRONT RANGE...

CITY           SKY/WX    TMP DP  RH WIND       PRES   REMARKS
DENVER INTL AP FAIR      27  11  51 S16       30.12F WCI  15
DMNS CITY PARK NOT AVBL
AURORA         CLEAR     23  14  68 S9        30.13F WCI  13
FRONT RANGE AP FAIR      26  15  64 S15G21    30.13S WCI  13
ERIE MUNI ARPT FAIR      17  13  86 CALM      30.18S
BOULDER MUN AP FAIR      25  18  74 CALM      30.11S
CENTENNIAL     FAIR      22  10  60 S7        30.12F WCI  13
BROOMFIELD     FAIR      27  19  74 CALM      30.12S
FORT COLLINS   FAIR      22  16  78 N3        30.13S
LONGMONT       FAIR      19  14  82 NW3       30.14S
$$

COZ041-046-047-076>085-087-088-151000-
...PIKES PEAK/PALMER DIVIDE AND SOUTHERN FOOTHILLS...

CITY           SKY/WX    TMP DP  RH WIND       PRES   REMARKS
COLO. SPRINGS  FAIR      22  20  92 NW8       30.17F FOG     WCI  12
A. F. ACADEMY  FOG       12  10  92 N9        30.15F VSB 1   WCI   0
SCHRIEVER AFB  SNOW      19  19 100 N3        30.17F VSB 1/2
CHEYENNE MTN   FAIR      28   3  33 CALM      30.09F
ELLICOTT         N/A    N/A N/A N/A CALM      30.16F
FALCON         FAIR      15  13  92 NW10      30.15F WCI   2
FORT CARSON    FAIR      20  17  88 N9        30.16F WCI   9
LIMON          FAIR       6   4  91 N8        30.15F WCI  -7
MONUMENT HILL  FAIR      12   5  73 SW10      30.15F WCI  -1
CANON CITY     FAIR      32  10  40 W25       30.16F WCI  19
WALSENBURG     FAIR      27  14  59 SW15      30.19F WCI  15
TRINIDAD       FAIR      23  19  85 W14       30.21F WCI  11
$$

COZ042>045-048>051-090-091-151000-
...NORTHEAST COLORADO...

CITY           SKY/WX    TMP DP  RH WIND       PRES   REMARKS
GREELEY ARPT   FAIR      12   7  80 CALM      30.14F
AKRON          FAIR      19  13  77 SW16      30.12F WCI   4
BURLINGTON     FAIR      15  12  88 W12       30.16F WCI   2
WRAY           FAIR      18  14  86 W7        30.16S WCI   8
YUMA           FAIR      19  14  79 W10       30.14S WCI   8
STERLING       FAIR      12  10  92 S8        30.14R WCI   1
HOLYOKE        FAIR      19  14  79 W9        30.14S WCI   9
FORT MORGAN    FAIR      12   9  87 W9        30.14S WCI  -1
$$

COZ086-089-092>099-151000-
...SOUTHEAST COLORADO...

CITY           SKY/WX    TMP DP  RH WIND       PRES   REMARKS
PUEBLO         FOG       18  16  92 NW5       30.20F VSB 1   WCI  11
LA JUNTA       FAIR      22  20  92 W10       30.22F WCI  11
LAMAR          FAIR      16  12  84 SW7       30.22F WCI   6
SPRINGFIELD      N/A     20  18  92 W6        30.23F WCI  12
$$




USA.gov is the U.S. government's official web portal to all federal, state and local government web resources and services.